Regional Weather Roundup
Issued by NWS Grand Forks, ND

Current Version | Previous Version | Text Only | Print | Product List | Glossary On
Versions: 1 2 3 4 5 6 7 8 9 10 11 12 13 14 15 16 17 18 19 20 21 22 23 24 25 26 27 28 29 30 31 32 33 34 35 36 37 38 39 40 41 42 43 44 45 46 47 48 49 50
000
ASUS43 KFGF 030731
RWRFGF
PRAIRIE TO PINES  WEATHER ROUNDUP
NATIONAL WEATHER SERVICE EASTERN NORTH DAKOTA/GRAND FORKS ND
100 AM CST SAT DEC 03 2016

 **SATELLITE DATA USED TO AUGMENT SKY COVER AT AUTOMATED STATIONS**
 *****  WEATHER ACROSS EASTERN NORTH DAKOTA  *****

CITY           SKY/WX    TMP DP  RH WIND       PRES   REMARKS
GRAND FORKS    NOT AVBL
GRAND FRKS AFB CLOUDY    28  20  72 SW9       30.23F WCI  20
GRAND FRKS NWS   N/A     28 N/A N/A SW12        N/A  WCI  18
DEVILS LAKE    CLOUDY    25  19  80 S9        30.17F WCI  15
WAHPETON ARPT  CLOUDY    27  19  74 SW5       30.29F WCI  21
$$

 ***** WEATHER ACROSS CENTRAL AND WESTERN NORTH DAKOTA  *****

CITY           SKY/WX    TMP DP  RH WIND       PRES   REMARKS
BISMARCK       CLEAR     24  22  91 S9        30.15F WCI  14
MINOT          CLEAR     22  20  92 SE6       30.06F WCI  14
JAMESTOWN      CLOUDY    24  20  84 S8        30.20F WCI  15
MINOT AFB      CLOUDY    24  22  90 SE8       30.05F WCI  15
GARRISON         N/A     26  24  92 S10       30.08F WCI  16
WILLISTON      CLEAR     24  20  84 S6        29.99F WCI  17
DICKINSON      CLEAR     16  14  92 S10       30.02F WCI   4
HETTINGER      NOT AVBL
$$

 *****  OTHER AIRPORT OBSERVATIONS IN OUR AREA  *****

CITY           SKY/WX    TMP DP  RH WIND       PRES   REMARKS
WALHALLA         N/A     28  28 100 S7        30.20F WCI  21
GRAFTON AIRPOR CLOUDY    30  25  80 SW8       30.24F WCI  23
VALLEY CITY AR PTSUNNY   19  19 100 S8        30.24F WCI   9
CANDO          CLOUDY    25  23  93 S14       30.16F WCI  13
CAVALIER APRT  MIX PCPN  28  23  80 SW8       30.21F WCI  20
GWINNER        CLOUDY    27  21  80 S9        30.26F WCI  17
SHEYENNE NWR     N/A     25  17  71 SW5       29.95S WCI  19
ROLLA          CLOUDY    23  23 100 S9        30.11F WCI  13
 ***** THE ABOVE OBSERVATIONS ARE NON NWS ARE NOT QUALITY
       CONTROLLED AND MAY MIS-REPORT RAIN FOR SNOW...
$$

  *****  WEATHER ACROSS NORTHERN MINNESOTA  *****

CITY           SKY/WX    TMP DP  RH WIND       PRES   REMARKS
FLAG ISLAND    CLOUDY    25  21  86 W5        30.22S WCI  19
WARROAD        CLOUDY    25  19  80 CALM      30.23F
ROSEAU         CLOUDY    27  21  80 SE5       30.23F WCI  21
HALLOCK        CLOUDY    30  27  86 S6        30.22S WCI  24
THF RVR FALLS  CLOUDY    27  21  78 SW9       30.25S WCI  18
BAUDETTE       NOT AVBL
WASKISH        CLOUDY    25  21  86 CALM      30.24S
CROOKSTON      CLOUDY    28  23  80 SW6       30.26F WCI  22
STEPHEN NDAWN    N/A     30  25  80 S7          N/A  WCI  23
GREENBUSH NDAW   N/A     27  25  93 S3          N/A
$$
  *****  WEATHER ACROSS CENTRAL AND WEST MINNESOTA  *****

CITY           SKY/WX    TMP DP  RH WIND       PRES   REMARKS
FOSSTON        CLOUDY    25  18  74 S7        30.24F WCI  17
BEMIDJI        CLOUDY    25  19  78 W5        30.25S WCI  19
PARK RAPIDS    NOT AVBL
ELBOW LAKE     CLOUDY    25  20  80 CALM      30.29S
WADENA         CLOUDY    25  18  74 NW3       30.26S
DETROIT LAKES  CLOUDY    27  21  80 S3        30.25F
MOORHEAD       CLOUDY    25  18  74 SW6       30.28F WCI  18
FERGUS FALLS   CLOUDY    25  18  74 SW5       30.32S WCI  19
MORRIS MN      CLOUDY    27  21  80 W6        30.29S WCI  20
STAPLES        CLOUDY    25  19  80 SW5       30.27S WCI  19
$$
  *****  WEATHER ELSEWHERE ACROSS MINNESOTA  *****

CITY           SKY/WX    TMP DP  RH WIND       PRES   REMARKS
DULUTH         CLOUDY    27  24  89 NW6       30.24R WCI  20
INTRNTL FALLS  CLOUDY    23  19  85 SW3       30.24F
ELY            CLOUDY    25  23  93 W5        30.23R WCI  19
CLOQUET        CLOUDY    27  21  80 W5        30.25S WCI  21
WHEATON        NOT AVBL
BRAINERD       CLOUDY    25  20  81 W5        30.27F WCI  19
HIBBING        NOT AVBL
ALEXANDRIA     NOT AVBL
SAINT CLOUD    NOT AVBL
MINNEAPOLIS    NOT AVBL
$$

  *****  WEATHER ACROSS SOUTH DAKOTA  *****

CITY           SKY/WX    TMP DP  RH WIND       PRES   REMARKS
SIOUX FALLS    PTCLDY    28  23  81 CALM      30.29R
BROOKINGS      CLOUDY    25  20  81 N3        30.27
WATERTOWN      NOT AVBL
HURON          CLEAR     26  25  96 SE5       30.27F WCI  20
SISSETON         N/A     26  18  71 W6        30.29R WCI  19
ABERDEEN       NOT AVBL
MITCHELL       NOT AVBL
PIERRE         PTCLDY    20  17  88 SE7       30.20F FOG     WCI  11
MOBRIDGE       CLOUDY    29  24  82 S9        30.15F WCI  20
RAPID CITY     CLEAR     21  17  84 SE7       30.09F WCI  12
$$

  *****  SOME WEATHER IN NEARBY STATES *****

CITY           SKY/WX    TMP DP  RH WIND       PRES   REMARKS
GLASGOW MT     CLOUDY    26  20  77 S10       29.87F WCI  16
GREAT FALLS MT CLEAR     30  20  66 SW26      29.85F WCI  16
CHEYENNE WY    CLOUDY    22  20  92 SW10      30.08F WCI  11
SCOTTSBLUFF NE NOT AVBL
OMAHA NE       MOCLDY    25  21  85 SE7       30.37R WCI  17
DES MOINES IA  CLOUDY    36  30  79 S3        30.36R
DAVENPORT IA   CLOUDY    32  25  75 NW10      30.34S WCI  24
CHICAGO IL     CLOUDY    33  24  69 SW3       30.31R
EAU CLAIRE WI  CLOUDY    30  26  85 W5        30.28F
LA CROSSE WI   NOT AVBL
$$

  *****  SOME NATIONAL WEATHER *****

CITY           SKY/WX    TMP DP  RH WIND       PRES   REMARKS
LA GUARDIA NY  CLOUDY    46  31  55 W13       29.91R
RALEIGH NC     MOCLDY    45  29  53 VRB5      30.20R
ATLANTA GA     CLOUDY    45  33  63 NW9       30.24F
NEW ORLEANS LA LGT RAIN  56  50  80 NE7       30.15F
OKLAHOMA CITY  LGT RAIN  47  45  93 NE7       30.21F
ALBUQUERQUE NM CLOUDY    35  25  66 E24G37    30.09R WCI  23
SALT LAKE CITY CLOUDY    28  18  66 SE6       30.29S WCI  22
LOS ANGELES CA CLEAR     57  13  17 CALM      30.08S
BOISE ID       CLOUDY    33  25  72 S6        30.27S
SEATTLE WA     CLOUDY    47  44  90 SW9       30.17R
$$

*** WEATHER ACROSS MANITOBA...SASKATCHEWAN AND ONTARIO ***
                ***ONTARIO***

CITY           SKY/WX    TMP DP  RH WIND       PRES   REMARKS
GERALDTON      FRZ DRZL  21  19  93 W2        30.19S
THUNDER BAY    CLOUDY    28  25  86 W3        30.24F
SIOUX LOOKOUT  FRZ DRZL  23  21  93 VRB2      30.21S
TORONTO        MOCLDY    36  28  75 W13       30.07R
BIG TROUT LK   FLURRIES  14  12  92 W7        30.27R WCI   4
PICKLE LAKE    NOT AVBL
DRYDEN         CLOUDY    21  21 100 VRB2      30.20F
KENORA         LGT SNOW  18  16  93 N2        30.22S FOG
$$
                *** MANITOBA***

CITY           SKY/WX    TMP DP  RH WIND       PRES   REMARKS
BRANDON        FLURRIES  27  23  86 SE10      30.08F WCI  17
DAUPHIN        CLOUDY    28  25  86 S3        30.08F
ISLAND LAKE    NOT AVBL
PILOT MOUND      N/A     25  21  86 S13         N/A  WCI  13
THE PAS        CLOUDY    28  27  93 SE12      30.03F WCI  18
THOMPSON       LGT SNOW  16  14  93 S3        30.13F
WINNIPEG       CLOUDY    27  23  86 S10       30.20F WCI  17
LYNN LAKE      CLOUDY    18  18 100 S8        30.00S WCI   7
CHURCHILL      CLEAR      1  -2  85 SW7       30.16S WCI -11
GILLAM         FLURRIES   9   5  85 SW5       30.21S WCI   0
$$
                ***SASKATCHEWAN***

CITY           SKY/WX    TMP DP  RH WIND       PRES   REMARKS
ESTEVAN        PTCLDY    19  19 100 SE9       29.96F WCI   9
KINDERSLEY     CLOUDY    23  21  93 E7        29.67F WCI  15
LLOYDMINSTER   CLOUDY    23  21  93 SE12      29.70F WCI  12
PRINCE ALBERT  FLURRIES  27  21  80 S13       29.87F WCI  16
REGINA         PTCLDY    23  21  93 SE17      29.86F WCI   9
YORKTON        CLOUDY    27  23  86 SE10      29.95F WCI  17
N. BATTLEFORD  CLOUDY    23  23 100 SE12      29.77F WCI  12
LA RONGE       CLOUDY    28  23  80 S15G22    29.87S WCI  17
SASKATOON      MOCLDY    25  19  80 SE10      29.81F WCI  15
SWIFT CURRENT  MOCLDY    27  23  86 SW18      29.70F WCI  13
$$
NOTE: THESE ARE AUTOMATED STATIONS WITH LIMITED QUALITY CONTROL
      "FAIR" INDICATES FEW OR NO CLOUDS BELOW 12,000 FEET WITH NO
      SIGNIFICANT WEATHER AND/OR OBSTRUCTIONS TO VISIBILITY.
      SKY/WX - SKY CONDITION AND SIGNIFICANT WEATHER.
      TMP - AIR TEMPERATURE.    DP   - DEWPOINT TEMPERATURE.
      RH  - RELATIVE HUMIDITY.  PRES - PRESSURE.
      HX  - HEAT INDEX.         WCI  - WIND CHILL INDEX.
$



USA.gov is the U.S. government's official web portal to all federal, state and local government web resources and services.